Location: Laterina
(43.5167°N, 11.7167°E)
Time: 03:32:21
(UTC+00:00)

HJ-1C - Visible Passes

Search period start: 04 August 2021 00:00
Search period end: 14 August 2021 00:00
Orbit: 427 x 437 km, 97.1° (Epoch: 03 August)

Date Brightness Start Highest point End Pass type
(mag) Time Alt. Az. Time Alt. Az. Time Alt. Az.
04 Aug 6.4 19:08:59 10° SW 19:10:46 14° W 19:12:35 10° WNW visible
11 Aug 6.3 19:02:12 10° SW 19:04:24 17° W 19:06:37 10° NW visible
13 Aug 6.6 19:14:28 10° WSW 19:15:50 12° W 19:17:12 10° WNW visible
